EW7070 Weather Reports


time (UTC)temp
F
wind
direction
speed
knots
gust
knots
rain 1hr
in
rain 24hr
in
rain mn
in
humidity
%
barometer
mb
20260831112629 61 120 0.0 0.0 0.00 0.04 0.00 99 1011.2
20260831112332 61 120 0.0 0.0 0.00 0.04 0.00 99 1010.9
20260831111600 61 120 0.0 0.0 0.00 0.04 0.00 98 1011.1
20260831111032 61 120 0.0 0.0 0.00 0.04 0.00 99 1011.2
20260831110504 61 114 0.0 0.0 0.00 0.04 0.00 99 1010.9
20260831105939 61 144 0.0 0.0 0.00 0.04 0.00 99 1011.0
20260831105440 60 144 0.0 0.0 0.00 0.04 0.00 99 1011.1
20260831104941 60 143 0.0 0.9 0.00 0.04 0.00 99 1010.9
20260831104713 60 244 0.0 0.0 0.00 0.04 0.00 99 1011.2
20260831103914 60 218 0.0 0.9 0.00 0.04 0.00 99 1011.1
20260831103347 60 218 0.0 0.9 0.00 0.04 0.00 99 1011.0
20260831103342 60 218 0.0 1.7 0.00 0.04 0.00 99 1011.0
20260831102329 60 143 0.0 1.7 0.00 0.04 0.00 99 1010.9
20260831102321 60 214 0.0 1.7 0.00 0.04 0.00 99 1010.9
20260831101548 60 143 0.0 1.7 0.00 0.04 0.00 99 1010.8
20260831101049 60 143 0.0 0.9 0.00 0.04 0.00 99 1010.8
20260831100317 60 32 0.0 0.9 0.00 0.04 0.00 99 1010.8
20260831100051 60 32 0.0 0.9 0.00 0.04 0.00 99 1010.9
20260831095546 60 32 0.0 0.9 0.00 0.04 0.00 99 1011.1
20260831094813 60 18 0.0 0.0 0.00 0.04 0.00 99 1010.9
20260831094259 60 6 0.0 0.9 0.00 0.04 0.00 99 1011.0
20260831093800 60 6 0.0 0.9 0.00 0.04 0.00 98 1010.8
20260831093258 60 103 0.0 0.9 0.00 0.04 0.00 98 1010.4
20260831092757 60 208 0.0 1.7 0.00 0.04 0.00 99 1010.1
20260831092519 60 208 0.0 1.7 0.00 0.04 0.00 99 1009.9
20260831091958 60 172 0.0 0.9 0.00 0.04 0.00 98 1010.1
20260831091719 60 126 0.0 0.9 0.00 0.04 0.00 98 1010.3
20260831090715 59 126 0.0 1.7 0.00 0.04 0.00 98 1009.7
20260831090214 59 119 0.0 1.7 0.00 0.04 0.00 99 1009.5
20260831085929 59 125 0.0 0.9 0.00 0.04 0.00 99 1009.7
20260831085142 59 177 0.0 0.0 0.00 0.04 0.00 99 1009.6
20260831084645 59 177 0.0 0.0 0.00 0.04 0.00 99 1009.9
20260831084117 59 177 0.0 0.0 0.00 0.04 0.00 99 1009.7
20260831083820 59 233 0.0 0.0 0.00 0.04 0.00 99 1010.0
20260831083049 59 233 0.0 0.0 0.00 0.04 0.00 99 1010.2
20260831082528 59 233 0.0 0.0 0.00 0.04 0.00 99 1010.1
20260831082008 59 233 0.0 0.0 0.00 0.04 0.00 98 1010.2
20260831081736 59 233 0.0 0.0 0.00 0.04 0.00 98 1010.2
20260831081006 59 233 0.0 0.0 0.00 0.04 0.00 98 1010.1
20260831080505 59 233 0.0 0.9 0.00 0.04 0.00 98 1010.2
20260831080219 59 233 0.0 0.0 0.00 0.04 0.00 98 1010.4
20260831075446 58 233 0.0 0.0 0.00 0.04 0.00 98 1010.5
20260831075214 58 233 0.0 0.0 0.00 0.04 0.00 98 1010.6
20260831074713 58 233 0.0 0.0 0.00 0.04 0.00 98 1010.7
20260831073942 58 233 0.0 0.0 0.00 0.04 0.00 98 1011.0
20260831073440 58 233 0.0 0.0 0.00 0.04 0.00 98 1010.7
20260831073200 58 233 0.0 0.0 0.00 0.04 0.00 98 1010.9
20260831072432 58 233 0.0 0.0 0.00 0.04 0.00 98 1011.1
20260831071911 58 233 0.0 0.0 0.00 0.04 0.00 98 1011.1
20260831071414 57 233 0.0 0.0 0.00 0.04 0.00 98 1011.0
20260831071127 57 233 0.0 0.0 0.00 0.04 0.00 98 1011.2
20260831070351 57 233 0.0 0.0 0.00 0.04 0.00 98 1011.4
20260831065850 57 233 0.0 0.0 0.00 0.04 0.00 97 1011.6
20260831065342 57 233 0.0 0.9 0.00 0.04 0.00 97 1011.5
20260831064843 57 233 0.0 0.9 0.00 0.04 0.00 97 1011.6
20260831064314 57 233 0.0 0.9 0.00 0.04 0.00 97 1011.5
20260831063743 57 141 0.0 0.9 0.00 0.04 0.00 97 1011.4
20260831063243 58 246 0.0 1.7 0.00 0.04 0.00 97 1011.5
20260831062741 58 246 0.9 1.7 0.00 0.04 0.00 97 1011.6
20260831062242 58 247 0.9 1.7 0.00 0.04 0.00 97 1011.7
20260831061733 58 169 0.0 0.0 0.00 0.04 0.00 97 1011.6
20260831061456 58 169 0.0 0.0 0.00 0.04 0.00 97 1011.5
20260831060722 58 169 0.0 2.6 0.00 0.04 0.00 98 1011.6
20260831060222 58 169 0.0 2.6 0.00 0.04 0.00 98 1011.6
20260831055950 59 169 0.0 2.6 0.00 0.04 0.00 97 1011.7
20260831055221 59 169 0.9 2.6 0.00 0.04 0.00 98 1011.8
20260831054718 59 149 0.9 1.7 0.00 0.04 0.00 98 1011.9
20260831054213 59 145 0.0 2.6 0.00 0.04 0.00 98 1012.3
20260831053711 59 299 0.0 2.6 0.00 0.04 0.00 98 1012.5
20260831053157 59 280 0.0 0.0 0.00 0.04 0.00 98 1012.9
20260831052654 58 280 0.0 0.0 0.00 0.04 0.00 97 1012.7
20260831052145 58 280 0.0 0.0 0.00 0.04 0.00 97 1012.2
20260831051645 58 280 0.0 0.9 0.00 0.04 0.00 97 1012.1
20260831051143 58 280 0.0 0.9 0.00 0.04 0.00 97 1012.0
20260831050637 58 280 0.0 0.9 0.00 0.04 0.00 96 1011.9
20260831050137 58 280 0.0 1.7 0.00 0.04 0.00 95 1011.6
20260831045638 58 280 0.0 1.7 0.00 0.04 0.00 95 1011.8
20260831045631 58 265 0.0 0.0 0.00 0.04 0.00 95 1011.8
20260831044602 58 182 0.0 0.0 0.00 0.04 0.00 95 1011.8
20260831044320 59 182 0.0 0.0 0.00 0.04 0.00 95 1012.0
20260831043544 59 182 0.0 0.0 0.00 0.04 0.00 95 1012.3
20260831043044 59 271 0.0 0.0 0.00 0.04 0.00 95 1012.5
20260831042538 59 271 0.0 0.0 0.00 0.04 0.00 95 1012.8
20260831042037 59 271 0.0 0.0 0.00 0.04 0.00 95 1013.0
20260831041539 59 271 0.0 0.0 0.00 0.04 0.00 95 1013.0
20260831041031 60 271 0.0 0.0 0.00 0.04 0.00 95 1012.9
20260831040531 60 271 0.0 1.7 0.00 0.04 0.00 95 1013.1
20260831040027 60 271 0.9 1.7 0.00 0.04 0.00 95 1012.9
20260831035526 60 289 0.9 1.7 0.00 0.04 0.00 95 1012.8
20260831035025 60 323 0.9 1.7 0.00 0.04 0.00 95 1012.3
20260831034524 61 323 0.9 3.5 0.00 0.04 0.00 95 1012.1
20260831034226 61 341 1.7 3.5 0.00 0.04 0.00 95 1012.2
20260831033455 61 12 0.9 3.5 0.00 0.04 0.00 95 1012.4
20260831032953 61 3 0.0 1.7 0.00 0.04 0.00 95 1012.8
20260831032451 61 310 0.0 1.7 0.00 0.04 0.00 94 1013.1
20260831031948 61 310 0.0 1.7 0.00 0.04 0.00 94 1012.9
20260831031443 62 310 0.0 1.7 0.00 0.04 0.00 94 1013.2
20260831030947 62 249 0.9 2.6 0.00 0.04 0.00 94 1013.2
20260831030421 62 249 1.7 3.5 0.00 0.04 0.00 94 1013.0
20260831025903 62 254 1.7 3.5 0.00 0.04 0.04 94 1013.3
20260831025402 62 235 0.9 2.6 0.00 0.04 0.04 94 1012.9
20260831024842 62 133 0.9 3.5 0.00 0.04 0.04 94 1012.8
20260831024341 62 172 1.7 3.5 0.00 0.04 0.04 94 1012.8
20260831023839 62 126 1.7 3.5 0.00 0.04 0.04 94 1012.8
20260831023608 62 124 1.7 6.1 0.00 0.04 0.04 94 1012.9
20260831022836 62 81 1.7 6.1 0.00 0.04 0.04 94 1013.6
20260831022608 63 110 2.6 6.1 0.00 0.04 0.04 94 1013.7
20260831021837 62 101 2.6 6.1 0.00 0.04 0.04 94 1013.3
20260831021336 63 89 1.7 5.2 0.00 0.04 0.04 94 1013.2
20260831021109 63 168 1.7 4.3 0.00 0.04 0.04 94 1013.2
20260831020318 63 160 2.6 5.2 0.00 0.04 0.04 94 1013.4
20260831015816 63 116 1.7 5.2 0.00 0.04 0.04 94 1013.1
20260831015305 63 148 0.9 3.5 0.00 0.04 0.04 94 1013.3
20260831014804 63 182 1.7 5.2 0.00 0.04 0.04 94 1013.3
20260831014236 63 102 2.6 5.2 0.00 0.04 0.04 94 1013.2
20260831013732 63 112 1.7 5.2 0.00 0.04 0.04 94 1013.7
20260831013223 63 122 4.3 9.6 0.00 0.04 0.04 94 1013.7
20260831012929 63 143 6.1 9.6 0.00 0.04 0.04 94 1013.6
20260831012145 63 111 5.2 8.7 0.00 0.04 0.04 95 1013.7
20260831011648 63 99 5.2 9.6 0.00 0.04 0.04 95 1013.7
20260831011131 63 148 5.2 11.3 0.00 0.04 0.04 95 1013.8
20260831010632 63 102 5.2 11.3 0.00 0.04 0.04 95 1013.9
20260831010131 63 108 5.2 11.3 0.00 0.04 0.04 95 1013.9
20260831005629 63 116 4.3 11.3 0.00 0.04 0.04 95 1013.7
20260831005127 63 115 3.5 8.7 0.00 0.04 0.04 95 1013.8
20260831004616 63 149 2.6 8.7 0.01 0.04 0.04 95 1014.0
20260831004116 63 117 1.7 7.0 0.03 0.04 0.04 95 1014.3
20260831003548 63 139 1.7 7.0 0.03 0.04 0.04 95 1014.9
20260831003045 63 123 2.6 7.0 0.03 0.04 0.04 95 1014.5
20260831002537 63 146 2.6 7.0 0.03 0.04 0.04 94 1014.4
20260831002306 63 108 4.3 8.7 0.03 0.04 0.04 94 1014.9
20260831001510 63 114 4.3 8.7 0.03 0.04 0.04 94 1014.5
20260831001006 64 110 1.7 7.0 0.03 0.04 0.04 93 1014.3
20260831000504 64 148 0.9 8.7 0.03 0.04 0.04 93 1015.0
20260830235949 64 103 1.7 8.7 0.03 0.04 0.04 93 1015.0
20260830235437 64 132 1.7 8.7 0.03 0.04 0.04 92 1014.9
20260830234936 64 107 2.6 8.7 0.03 0.04 0.04 92 1015.1
20260830234410 64 312 2.6 7.8 0.02 0.03 0.03 92 1015.5
20260830233844 65 141 3.5 10.4 0.00 0.01 0.01 91 1015.4
20260830233341 65 196 4.3 13.0 0.01 0.01 0.01 91 1014.5
20260830232843 64 287 4.3 13.0 0.01 0.01 0.01 92 1015.9
20260830232339 64 255 3.5 8.7 0.01 0.01 0.01 92 1014.5
20260830231843 64 91 3.5 8.7 0.01 0.01 0.01 92 1011.8
20260830231338 64 81 3.5 7.0 0.01 0.01 0.01 92 1011.7
20260830230835 64 115 3.5 8.7 0.01 0.01 0.01 92 1012.1
20260830230307 64 109 3.5 8.7 0.01 0.01 0.01 92 1011.7
20260830225734 65 122 3.5 7.0 0.01 0.01 0.01 92 1011.1
20260830225206 65 108 2.6 7.0 0.01 0.01 0.01 92 1011.5
20260830224915 65 208 2.6 7.8 0.01 0.01 0.01 91 1011.6
20260830224404 65 135 2.6 7.8 0.01 0.01 0.01 91 1011.6
20260830224117 65 103 1.7 6.1 0.00 0.00 0.00 91 1011.4
20260830223050 65 131 1.7 4.3 0.00 0.00 0.00 91 1011.7
20260830222518 65 126 1.7 2.6 0.00 0.00 0.00 90 1012.0
20260830222224 65 83 1.7 7.0 0.00 0.00 0.00 90 1012.2
20260830221450 65 125 2.6 4.3 0.00 0.00 0.00 90 1012.3
20260830221213 65 187 2.6 6.1 0.00 0.00 0.00 89 1012.4
20260830220416 65 95 0.9 3.5 0.00 0.00 0.00 89 1012.5
20260830215917 66 340 0.9 3.5 0.00 0.00 0.00 89 1012.7
20260830215407 65 339 1.7 7.0 0.00 0.00 0.00 89 1012.4
20260830214907 66 130 2.6 6.1 0.00 0.00 0.00 89 1011.8
20260830214405 66 168 2.6 9.6 0.00 0.00 0.00 89 1011.3
20260830213859 66 127 4.3 9.6 0.00 0.00 0.00 89 1011.3
20260830213350 66 165 3.5 9.6 0.00 0.00 0.00 89 1010.8
20260830213119 66 103 2.6 9.6 0.00 0.00 0.00 89 1010.9
20260830212357 66 121 2.6 7.0 0.00 0.00 0.00 89 1011.0
20260830211843 66 122 3.5 7.0 0.00 0.00 0.00 88 1011.4
20260830211343 66 167 2.6 7.0 0.00 0.00 0.00 88 1011.6
20260830210844 67 149 3.5 8.7 0.00 0.00 0.00 88 1011.3
20260830210320 67 122 3.5 7.8 0.00 0.00 0.00 88 1011.6
20260830205816 67 120 2.6 6.1 0.00 0.00 0.00 88 1012.1
20260830205315 67 164 1.7 4.3 0.00 0.00 0.00 88 1012.2
20260830204815 67 152 1.7 3.5 0.00 0.00 0.00 88 1012.5
20260830204303 67 112 0.9 2.6 0.00 0.00 0.00 87 1013.2
20260830203803 67 243 1.7 7.0 0.00 0.00 0.00 87 1013.0
20260830203236 67 156 2.6 7.0 0.00 0.00 0.00 88 1011.6
20260830202728 67 108 2.6 7.8 0.00 0.00 0.00 87 1010.9
20260830202204 67 118 2.6 7.0 0.00 0.00 0.00 88 1011.0
20260830201636 67 136 2.6 7.8 0.00 0.00 0.00 88 1011.6
20260830201126 67 119 2.6 7.8 0.00 0.00 0.00 87 1011.7
20260830200603 67 135 2.6 7.8 0.00 0.00 0.00 87 1011.5
20260830200040 67 106 2.6 8.7 0.00 0.00 0.00 87 1011.4
20260830195523 67 129 3.5 8.7 0.00 0.00 0.00 87 1011.3
20260830195026 68 108 3.5 8.7 0.00 0.00 0.00 87 1011.4
20260830194456 68 147 3.5 7.0 0.00 0.00 0.00 87 1011.4
20260830194431 68 118 3.5 7.0 0.00 0.00 0.00 87 1011.4
20260830193423 68 103 3.5 7.0 0.00 0.00 0.00 87 1011.6
20260830193124 68 137 2.6 7.0 0.00 0.00 0.00 87 1011.5
20260830192330 68 137 1.7 5.2 0.00 0.00 0.00 87 1011.6
20260830191818 68 126 1.7 7.0 0.00 0.00 0.00 87 1011.6
20260830191249 68 127 2.6 7.0 0.00 0.00 0.00 87 1011.6
20260830190955 68 119 1.7 6.1 0.00 0.00 0.00 86 1011.5
20260830190159 68 126 1.7 6.1 0.00 0.00 0.00 87 1011.5
20260830185655 68 126 1.7 5.2 0.00 0.00 0.00 87 1011.5
20260830185153 68 177 1.7 6.1 0.00 0.00 0.00 87 1011.7
20260830184652 68 182 2.6 6.1 0.00 0.00 0.00 87 1011.7
20260830184153 68 124 2.6 6.1 0.00 0.00 0.00 87 1011.5
20260830183626 68 105 1.7 6.1 0.00 0.00 0.00 87 1011.7
20260830183124 68 115 1.7 5.2 0.00 0.00 0.00 87 1011.8
20260830182556 68 111 2.6 7.8 0.00 0.00 0.00 86 1012.1
20260830182030 68 114 3.5 7.8 0.00 0.00 0.00 85 1012.0
20260830181505 68 74 2.6 7.0 0.00 0.00 0.00 86 1012.1
20260830180957 68 153 1.7 6.1 0.00 0.00 0.00 86 1012.9
20260830180456 68 116 2.6 5.2 0.00 0.00 0.00 86 1012.8
20260830175953 68 112 2.6 5.2 0.00 0.00 0.00 86 1012.2
20260830175446 68 132 1.7 5.2 0.00 0.00 0.00 86 1012.0
20260830174933 68 149 1.7 5.2 0.00 0.01 0.00 86 1011.9
20260830174432 68 166 0.9 4.3 0.00 0.01 0.00 86 1011.9
20260830173931 68 133 1.7 5.2 0.00 0.02 0.00 87 1012.2
20260830173432 68 104 2.6 7.8 0.00 0.03 0.00 87 1012.0
20260830172905 68 103 2.6 7.8 0.00 0.04 0.00 86 1011.9
20260830172401 68 120 1.7 3.5 0.00 0.05 0.00 87 1012.3
20260830172356 68 116 1.7 3.5 0.00 0.05 0.00 87 1012.7
20260830171351 68 131 0.9 4.3 0.00 0.06 0.00 86 1013.0
20260830170820 68 166 0.9 3.5 0.00 0.06 0.00 86 1012.9
20260830170527 69 163 0.9 2.6 0.00 0.07 0.00 86 1013.0
20260830165738 69 128 0.9 2.6 0.00 0.08 0.00 85 1013.2
20260830165236 68 120 0.9 2.6 0.00 0.11 0.00 85 1013.2
20260830164740 68 141 1.7 4.3 0.00 0.14 0.00 85 1013.4
20260830164211 68 102 1.7 4.3 0.00 0.15 0.00 85 1013.2
20260830163942 68 79 2.6 4.3 0.00 0.16 0.00 85 1013.2
20260830163157 68 85 2.6 7.0 0.00 0.16 0.00 85 1013.3
20260830162659 68 133 3.5 7.0 0.00 0.17 0.00 85 1013.2
20260830162131 68 103 2.6 7.0 0.00 0.17 0.00 85 1013.4
20260830161629 68 107 1.7 7.0 0.00 0.18 0.00 85 1013.4
20260830161329 68 143 1.7 7.0 0.00 0.19 0.00 85 1014.0
20260830160533 68 131 3.5 7.0 0.00 0.19 0.00 85 1013.5
20260830160005 68 106 2.6 7.8 0.00 0.21 0.00 85 1013.5
20260830155500 68 115 2.6 7.8 0.00 0.23 0.00 84 1013.9
20260830154956 68 113 3.5 8.7 0.00 0.26 0.00 83 1014.0
20260830154454 68 124 3.5 9.6 0.00 0.30 0.00 83 1013.9
20260830153928 68 136 3.5 8.7 0.00 0.33 0.00 84 1013.8
20260830153401 68 75 3.5 8.7 0.00 0.33 0.00 83 1013.6
20260830153107 68 103 2.6 6.1 0.00 0.33 0.00 84 1013.7
20260830152331 68 119 3.5 8.7 0.00 0.33 0.00 84 1013.6
20260830152058 68 126 3.5 9.6 0.00 0.33 0.00 83 1013.6
20260830151524 67 119 2.6 9.6 0.00 0.33 0.00 83 1013.8
20260830151001 68 107 2.6 8.7 0.00 0.34 0.00 83 1014.1
20260830150230 68 139 3.5 8.7 0.00 0.34 0.00 83 1014.1
20260830145729 68 131 2.6 7.0 0.00 0.34 0.00 83 1014.0
20260830145203 68 132 2.6 7.0 0.00 0.35 0.00 83 1014.3
20260830144657 68 91 3.5 8.7 0.00 0.37 0.00 82 1014.4
20260830144136 68 122 3.5 7.0 0.00 0.40 0.00 83 1014.3
20260830143621 68 118 4.3 8.7 0.00 0.40 0.00 83 1014.1
20260830143121 68 131 3.5 8.7 0.00 0.40 0.00 82 1014.1
20260830142556 68 158 3.5 8.7 0.00 0.40 0.00 82 1014.2
20260830142039 68 102 3.5 8.7 0.00 0.40 0.00 82 1014.0
20260830141537 68 119 3.5 8.7 0.00 0.40 0.00 82 1014.0
20260830141035 68 119 4.3 8.7 0.00 0.40 0.00 82 1014.2
20260830140534 68 104 5.2 11.3 0.00 0.40 0.00 82 1014.2
20260830140020 68 116 6.1 11.3 0.00 0.40 0.00 81 1014.4
20260830135521 68 113 5.2 10.4 0.00 0.40 0.00 81 1014.3
20260830135004 68 141 6.1 11.3 0.00 0.40 0.00 82 1014.2
20260830134504 68 112 6.1 11.3 0.00 0.40 0.00 83 1014.4
20260830134006 68 113 5.2 10.4 0.00 0.40 0.00 82 1014.6
20260830133440 68 112 4.3 8.7 0.00 0.40 0.00 83 1014.5
20260830132932 68 110 4.3 8.7 0.00 0.40 0.00 83 1014.5
20260830132431 67 101 6.1 12.2 0.00 0.40 0.00 83 1014.8
20260830131910 68 108 7.0 9.6 0.00 0.40 0.00 81 1014.8
20260830131358 68 111 7.0 12.2 0.00 0.40 0.00 82 1014.7
20260830130846 68 115 7.0 12.2 0.00 0.40 0.00 83 1014.5
20260830130618 68 107 7.0 11.3 0.00 0.40 0.00 82 1014.6
20260830125827 68 121 7.0 11.3 0.00 0.40 0.00 83 1014.9
20260830125532 68 106 7.0 10.4 0.00 0.40 0.00 83 1014.7
20260830124748 67 112 6.1 10.4 0.00 0.40 0.00 85 1014.6
20260830124240 67 101 5.2 9.6 0.00 0.40 0.00 85 1014.8
20260830123713 67 151 5.2 9.6 0.00 0.40 0.00 85 1014.9
20260830123212 66 111 5.2 9.6 0.00 0.40 0.00 86 1014.9
20260830122712 66 141 5.2 10.4 0.00 0.40 0.00 86 1014.9
20260830122212 66 160 5.2 10.4 0.00 0.40 0.00 87 1014.9
20260830121709 65 120 4.3 8.7 0.00 0.40 0.00 86 1014.8
20260830121142 65 116 6.1 12.2 0.00 0.40 0.00 86 1014.7
20260830120617 65 122 5.2 12.2 0.00 0.40 0.00 86 1014.7
20260830120327 66 115 3.5 8.7 0.00 0.40 0.00 86 1014.5
20260830120203 66 87 3.5 11.3 0.00 0.40 0.00 87 1014.6
20260830115934 66 128 2.6 8.7 0.00 0.40 0.00 87 1014.5
20260830114551 66 102 2.6 6.1 0.00 0.40 0.00 87 1014.6
20260830114301 65 110 1.7 6.1 0.00 0.40 0.00 88 1014.6
20260830113530 65 124 0.9 5.2 0.00 0.40 0.00 87 1014.5
20260830113030 65 99 0.9 3.5 0.00 0.40 0.00 88 1014.5